SCP
0 0 0 0 0 0 0 0 0 0 0 0 0 0 0 0 0 0 0 0 0 0 0 0 0 0 0 0 0 0 0 0 0 0 0 0 0 0 0 0 0 0 0 0 0 0 0 0 -0 0 0 0 0 0
0 0 0 0 0 0 0 0 0 0 0 0 0 0 0 0 0 0 0 0 0 0 0 0 0 0 0 0 0 0 0 0 0 0 0 0 0 0 0 0 0 0 0 0 0 0 0 0 0 -0 -0 -0 -0 -0
0 0 0 0 0 0 0 0 0 0 0 0 0 0 0 0 0 0 0 0 0 0 0 0 0 0 0 0 0 0 0 0 0 0 0 0 0 0 0 0 0 -0 -0 -0 -0 -0 -0 -0 -0 -0 -0 -0 -0 -0
0 0 0 0 0 0 0 0 0 0 0 0 0 0 0 0 0 0 0 0 0 0 0 0 0 0 0 0 0 0 0 0 0 0 0 0 0 0 0 0 0 0 0 -0 -0 -0 -0 -0 -0 -0 -0 -0 -0 -0
0 0 0 0 0 0 0 0 0 0 0 0 0 0 0 0 0 0 0 0 0 0 0 0 0 0 0 0 0 0 0 0 0 0 0 0 0 0 0 0 0 0 0 0 0 0 0 0 -0 -0 -0 -0 -0 -0
0 0 0 0 0 0 0 0 0 0 0 0 0 0 0 0 0 0 0 0 0 0 0 0 0 0 0 0 0 0 0 0 0 0 0 0 0 0 0 0 0 0 0 0 0 0 0 0 -0 -0 -0 -0 -0 -0
0 0 0 0 0 0 0 0 0 0 0 0 0 0 0 0 0 0 0 0 0 0 0 0 0 0 0 0 0 0 0 0 0 0 0 0 0 0 0 0 0 0 0 0 0 0 0 0 0 0 -0 -0 -0 -0
0 0 0 0 0 0 0 0 0 0 0 0 0 0 0 0 0 0 0 0 0 -0 0 0 0 0 0 0 0 0 0 0 0 0 0 0 0 0 0 0 0 0 0 0 0 0 0 0 0 0 0 -0 -0 -0
0 0 0 0 0 0 0 0 0 0 0 0 0 0 0 0 0 0 0 0 0 0 0 0 0 0 0 0 0 0 0 0 0 0 0 0 0 0 0 0 0 0 0 0 0 0 0 0 0 0 0 -0 -0 -0
0 0 0 0 0 0 0 0 0 0 0 0 0 0 0 0 0 0 0 0 0 0 0 0 0 0 0 0 0 0 0 0 0 0 0 0 0 0 0 0 0 0 0 0 0 0 0 0 0 0 0 0 -0 -0
0 0 0 0 0 0 0 0 0 0 0 0 0 0 0 0 0 0 0 0 0 0 0 0 0 0 0 0 0 0 0 0 0 0 0 0 0 0 0 0 0 0 0 0 0 0 0 0 0 0 -0 -0 -0 -0
0 0 0 0 0 0 0 0 0 0 0 0 0 0 0 0 0 0 0 0 0 0 0 0 0 0 0 0 0 0 0 0 0 0 0 0 0 0 0 0 0 0 0 0 0 0 0 0 0 0 -0 -0 -0 -0
0 0 0 0 0 0 0 0 0 0 0 0 0 0 0 0 0 0 0 0 0 0 0 0 0 0 0 0 0 0 0 0 0 0 0 0 0 0 0 0 0 0 0 0 0 0 0 0 -0 0 -0 -0 -0 -0
0 0 0 0 0 0 0 0 -0 -0 0 0 0 0 0 0 0 0 0 0 0 0 0 0 0 0 0 0 0 0 0 0 0 0 0 0 0 0 0 0 0 0 0 0 0 -0 -0 -0 -0 -0 -0 -0 -0 -0
0 0 0 0 0 0 0 -0 -0 0 0 0 0 0 0 0 0 0 0 0 0 0 0 0 0 0 0 0 0 0 0 0 0 0 0 0 0 0 0 0 0 0 0 0 -0 -0 -0 -0 -0 -0 -0 -0 0 0
0 0 0 0 0 -0 -0 0 0 0 0 0 0 0 0 0 0 0 0 0 0 0 0 0 0 0 0 0 0 0 0 0 0 0 0 0 0 0 0 0 0 0 -0 -0 -0 -0 -0 0 -0 0 0 0 0 0
0 0 0 0 -0 0 0 0 0 0 0 0 0 0 0 0 0 0 0 0 0 0 0 0 0 0 0 0 0 0 0 0 0 0 0 0 0 0 0 0 0 -0 -0 -0 -0 0 0 0 0 -0 -0 -0 0 0
0 0 0 0 0 0 0 0 0 0 0 0 0 0 0 0 0 0 0 0 0 0 0 0 0 0 0 0 0 0 0 0 0 0 0 0 0 0 0 -0 -0 -0 -0 -0 0 0 0 0 -0 -0 -0 -0 -0 -0
0 0 0 0 0 0 0 0 0 0 0 0 0 0 0 0 0 0 0 0 0 0 0 0 0 0 0 0 0 0 0 0 0 0 0 0 0 -0 -0 -0 -0 -0 0 0 -0 -0 0 -0 -0 -0 0 0 0 -0
0 -0 0 0 0 0 0 0 0 0 0 0 0 0 0 0 0 0 0 0 0 0 0 0 0 0 0 0 0 0 0 0 0 0 0 0 0 0 -0 -0 -0 0 0 -0 0 0 0 0 0 0 0 0 0 0
0 0 0 0 0 0 0 0 0 0 0 0 0 0 0 0 0 0 0 0 0 0 0 0 0 0 0 0 0 0 0 0 0 0 -0 -0 0 -0 -0 0 0 0 0 0 0 0 0 0 -0 -0 -0 -0 0 0
0 0 0 0 0 0 0 0 0 0 0 0 0 0 0 0 0 0 0 0 0 0 0 0 0 0 0 0 0 0 0 -0 -0 -0 -0 -0 -0 -0 -0 -0 0 0 0 0 0 0 0 0 -0 -0 -0 -0 -0 0
0 0 0 0 0 0 0 0 0 0 0 0 0 0 0 0 0 0 0 0 0 0 0 0 0 0 0 -0 -0 0 0 0 0 0 0 -0 -0 0 0 0 0 0 0 0 0 0 0 -0 -0 -0 -0 -0 -0 0
-0 0 0 0 0 0 0 0 0 0 0 0 0 0 0 0 0 0 0 0 0 0 0 0 0 -0 -0 -0 0 0 0 0 0 0 0 0 0 0 0 0 0 0 0 0 0 0 0 -0 -0 0 -0 0 0 0
-0 -0 0 0 0 0 0 0 0 0 0 0 0 0 0 0 0 0 0 0 0 0 0 -0 -0 -0 -0 -0 -0 0 0 0 0 0 0 0 0 0 0 0 0 0 0 0 0 0 0 0 0 0 0 0 0 0
-0 0 0 0 0 0 0 0 0 0 0 0 0 0 0 0 0 0 0 0 0 0 0 0 0 -0 -0 -0 -0 0 0 0 0 0 0 0 0 0 0 0 0 0 -0 0 0 0 0 0 0 0 0 0 0 0
0 0 0 0 0 0 0 0 0 0 0 0 0 0 0 0 0 -0 -0 0 -0 0 -0 -0 -0 -0 -0 0 0 0 0 0 0 0 0 0 0 -0 -0 -0 0 0 0 0 0 0 0 0 0 0 0 0 0 0
-0 0 0 0 0 0 0 0 0 0 0 0 0 0 -0 -0 -0 -0 -0 -0 -0 0 0 0 0 0 0 0 0 0 0 0 0 -0 -0 -0 -0 -0 -0 0 0 0 0 0 0 0 0 0 0 0 0 0 0 0
-0 -0 -0 -0 0 0 0 -0 -0 0 0 -0 -0 0 0 -0 -0 0 0 0 0 0 0 0 0 0 0 0 0 0 -0 -0 -0 -0 -0 -0 0 -0 0 0 0 0 0 0 0 0 0 0 0 0 0 0 0 0
-0 0 0 0 0 -0 -0 -0 0 0 0 0 -0 0 0 0 -0 -0 -0 0 0 -0 -0 0 0 0 0 -0 -0 -0 0 0 0 0 0 0 0 0 0 0 0 0 0 0 0 0 0 0 0 0 0 0 0 0
0 0 -0 -0 -0 -0 0 0 -0 -0 -0 -0 0 0 0 0 0 0 0 0 0 0 0 0 0 0 0 0 0 0 0 0 0 0 0 0 0 0 0 0 0 0 0 0 0 0 0 0 0 0 0 0 0 0
-0 0 0 0 0 -0 -0 -0 -0 -0 -0 -0 -0 -0 -0 -0 -0 -0 0 0 0 0 0 0 0 0 0 0 0 0 0 0 0 0 0 0 0 0 0 0 0 0 0 0 0 0 0 0 0 0 0 0 0 0
0 0 0 0 0 0 0 -0 -0 -0 -0 -0 -0 -0 -0 -0 0 -0 -0 0 0 0 0 0 0 0 0 0 0 0 0 0 0 0 0 0 0 0 0 0 0 0 0 0 0 0 0 0 0 0 0 0 0 0
Wind_Speed_500mb
48 49 47 46 50 50 58 57 53 53 52 46 44 46 41 40 42 40 53 46 48 37 54 40 40 44 22 15 6 13 13 10 5 4 5 5 6 6 8 16 20 11 9 12 11 16 18 41 21 19 22 34 38 60
50 50 49 53 52 48 50 58 52 51 52 50 47 43 41 47 46 47 56 50 48 53 47 28 36 56 66 68 51 26 18 14 13 3 3 3 8 9 26 19 13 12 6 8 9 12 33 31 51 29 18 26 30 38
53 54 51 53 51 54 50 55 58 56 55 53 48 47 48 49 50 48 55 51 47 50 59 71 62 73 72 75 66 37 31 32 27 43 7 6 8 5 4 8 11 11 21 8 22 13 38 55 48 43 54 57 67 60
59 57 55 53 52 54 50 54 55 59 62 57 53 51 51 51 47 42 49 51 54 28 12 40 51 57 57 42 53 76 80 63 41 33 13 6 5 13 7 10 8 17 20 12 26 27 38 41 41 45 55 47 56 71
64 61 58 52 50 53 55 52 53 55 53 55 56 53 53 52 45 43 50 59 57 54 8 11 35 41 33 34 51 52 54 67 48 11 7 7 9 12 12 14 15 23 27 22 28 44 22 47 60 43 40 45 47 59
62 61 60 60 50 50 54 61 54 53 52 50 49 51 51 49 44 42 49 58 62 78 32 9 34 51 56 76 89 81 68 66 44 19 9 20 48 19 8 9 21 44 65 54 22 40 44 52 48 45 61 74 75 78
62 60 58 59 59 51 54 60 57 53 51 49 52 53 51 49 46 50 23 22 28 41 30 8 6 15 37 57 55 59 60 45 41 27 21 28 27 25 11 20 31 67 53 37 31 34 30 32 37 75 66 68 88 97
62 56 56 58 58 55 54 54 56 53 51 50 49 46 46 47 49 59 67 67 60 42 18 5 7 3 19 16 14 42 34 32 25 24 16 14 17 12 12 23 53 33 37 26 17 23 31 51 58 76 77 65 85 106
62 57 56 57 59 53 52 53 53 48 47 45 42 38 40 45 47 69 62 55 57 60 9 12 10 8 14 12 10 10 12 7 12 7 7 11 4 10 18 26 9 6 6 22 36 40 38 48 70 78 71 79 67 89
65 61 57 57 55 50 51 50 47 45 42 39 39 27 12 21 33 36 15 17 25 20 20 6 12 4 13 10 4 2 12 6 5 8 4 7 16 47 10 6 8 7 15 27 42 44 66 81 74 92 84 80 69 77
52 52 50 54 53 50 50 49 45 45 38 40 21 20 19 22 18 14 11 11 9 3 10 13 26 8 24 6 10 17 5 4 5 10 11 4 6 2 14 14 12 18 24 33 38 49 52 56 72 83 94 84 78 77
53 52 52 51 52 50 49 49 48 45 47 36 16 16 10 14 18 10 6 1 4 9 8 7 11 12 12 13 6 4 7 2 10 3 7 4 5 13 18 22 29 37 45 51 54 62 64 60 68 76 80 82 83 81
48 45 45 48 50 50 50 48 50 49 45 44 17 14 12 12 10 11 13 4 1 5 7 8 2 9 8 10 2 5 10 10 3 4 9 5 9 21 35 42 49 52 58 63 69 69 71 74 67 67 78 80 79 82
44 43 44 45 46 45 47 46 48 46 41 17 13 13 11 6 6 5 7 6 2 3 6 5 3 6 9 4 5 7 8 5 5 4 14 3 19 39 47 51 59 67 67 71 73 74 75 72 76 71 69 71 73 74
35 35 39 45 48 48 48 45 43 49 20 10 9 10 8 9 13 9 15 15 7 4 3 1 4 2 3 4 6 2 5 9 11 10 1 15 39 45 51 56 59 66 70 73 72 71 73 71 69 70 67 60 52 53
34 38 44 39 40 42 39 36 43 20 24 16 6 7 5 8 3 7 10 8 6 2 4 2 2 3 9 7 6 13 8 12 5 4 22 36 43 50 53 54 58 61 62 65 64 64 62 60 62 64 57 48 42 42
28 38 29 22 29 31 41 42 16 10 8 7 3 19 17 16 11 8 6 4 2 3 4 1 8 18 5 6 7 5 6 2 8 30 33 42 46 48 48 54 57 56 58 59 58 53 51 50 51 48 50 43 37 35
27 24 21 22 31 51 29 16 10 9 11 13 5 8 13 13 14 8 5 4 3 4 3 5 4 4 8 9 5 4 4 20 26 32 42 42 38 40 43 49 49 50 53 49 42 42 43 42 42 42 38 33 30 27
7 12 11 30 31 20 10 8 9 9 10 12 21 17 13 18 15 8 5 5 7 6 2 3 3 4 3 1 4 7 23 23 34 42 41 34 35 39 40 40 46 46 40 35 35 34 32 27 31 32 28 25 26 25
15 20 5 26 23 9 11 10 10 15 5 8 11 10 13 13 14 16 12 9 7 4 7 4 3 5 1 7 17 24 22 21 26 38 41 37 37 38 36 41 39 33 30 30 32 28 29 29 27 27 24 23 26 28
21 28 22 19 14 18 14 9 12 10 15 14 15 5 10 9 8 8 8 8 7 5 2 4 4 5 13 13 9 13 16 18 21 22 31 39 34 31 37 35 29 29 33 38 39 34 32 32 28 27 28 29 27 27
16 16 12 13 13 12 16 18 14 11 11 13 8 7 9 4 4 5 5 10 5 3 3 1 6 8 5 4 6 11 15 12 9 11 11 14 23 31 38 39 38 39 40 40 38 38 37 33 30 30 33 33 33 35
18 11 10 11 10 14 7 10 10 8 7 1 7 7 5 3 5 4 5 2 3 2 2 3 3 6 9 10 11 11 12 11 15 16 15 15 16 21 30 38 42 43 43 44 44 43 42 38 37 37 36 36 38 39
15 12 16 14 19 4 6 12 8 7 7 6 6 3 3 2 2 4 2 4 5 4 4 5 7 10 12 11 14 17 17 17 19 20 19 17 19 21 24 29 34 36 38 38 41 42 43 43 41 40 39 38 38 38
8 20 14 11 14 10 10 8 10 7 5 4 5 1 3 2 2 1 5 6 16 13 12 12 11 10 10 8 6 8 9 10 11 15 19 21 18 15 18 23 27 31 30 31 37 38 39 38 38 37 37 38 37 35
15 16 10 4 8 7 2 5 3 3 3 3 0 5 2 4 2 8 6 17 19 20 19 16 15 13 10 8 6 6 7 9 9 9 11 16 19 24 24 25 26 27 28 29 29 29 28 28 28 28 28 28 27 25
9 6 11 11 6 7 8 8 5 5 4 5 3 3 4 2 7 6 9 18 18 20 18 16 13 10 6 3 4 7 10 13 13 11 12 11 12 14 21 25 26 27 26 26 26 26 26 24 23 21 21 21 19 18
8 7 6 7 8 7 7 3 3 4 4 4 5 2 9 9 6 4 9 20 19 21 20 16 10 6 1 4 7 9 10 9 11 9 8 7 8 12 17 20 23 25 27 27 26 25 24 24 23 21 20 19 19 19
9 5 3 6 5 5 3 6 7 5 5 7 6 5 6 7 6 5 12 21 24 23 20 16 12 8 3 6 8 9 9 6 7 8 8 9 10 12 14 17 20 22 23 25 26 28 28 27 25 24 23 22 21 19
8 8 5 3 5 1 1 3 1 5 8 10 7 9 10 10 7 12 18 25 28 23 17 18 17 15 10 9 7 8 10 9 10 11 14 14 16 16 19 21 23 26 29 29 30 29 28 29 29 30 28 27 27 25
5 3 2 2 4 3 1 7 12 13 10 8 15 13 12 13 9 11 18 21 23 27 28 25 21 19 18 15 16 16 13 14 17 20 24 25 25 26 27 29 31 35 39 41 40 39 39 36 34 33 31 30 28 30
5 4 4 2 3 2 5 6 3 3 4 5 5 6 7 7 8 3 3 16 28 31 24 23 24 17 15 21 24 23 23 25 26 27 30 31 31 31 33 35 38 41 44 45 44 42 42 42 39 36 35 33 32 32
3 3 3 4 3 1 6 11 3 5 5 4 4 4 5 6 9 3 2 1 3 6 8 13 15 17 19 21 22 22 24 26 26 27 27 29 32 37 43 47 50 51 52 50 47 45 44 43 43 40 38 38 39 39
Wind_Direction_500mb
273 273 275 276 271 279 265 269 264 261 262 262 265 268 269 266 258 248 259 256 251 260 268 251 245 236 219 200 175 266 338 282 312 212 184 278 285 3 332 339 306 282 315 289 321 282 274 27 49 16 298 294 320 322
270 273 274 276 278 274 270 265 267 265 261 263 262 261 266 267 262 255 256 258 260 251 258 260 259 252 248 252 251 235 224 184 239 85 355 8 319 310 297 280 301 255 4 288 309 324 305 314 319 326 322 317 311 316
271 271 273 275 276 274 271 268 269 268 269 265 262 266 266 266 260 254 257 260 261 256 267 262 258 266 252 247 244 233 234 245 239 239 193 215 219 160 253 273 286 273 314 294 306 274 298 306 316 324 334 333 326 326
263 264 269 272 275 272 268 266 267 266 264 264 264 264 268 264 259 256 258 262 257 248 230 268 267 257 260 251 239 236 247 255 248 259 218 188 191 222 231 237 223 267 299 266 280 279 297 296 310 326 321 315 320 317
264 263 262 265 272 273 276 266 266 264 264 262 261 261 262 259 257 262 264 264 264 248 272 261 273 269 265 246 239 242 243 237 234 215 192 220 225 230 241 263 253 253 262 270 279 295 306 301 313 326 321 324 319 317
266 266 265 265 263 270 271 273 268 270 265 262 262 265 264 256 256 262 274 272 266 254 247 254 262 263 263 252 249 247 246 233 219 208 224 231 239 221 237 219 241 255 258 262 283 290 293 299 302 310 324 326 323 315
260 264 267 266 268 267 271 270 272 268 269 266 270 265 260 255 252 244 241 265 298 243 219 231 260 268 251 240 239 243 242 231 227 231 237 242 241 235 250 259 267 262 274 275 286 299 298 298 308 313 321 317 318 319
260 258 265 268 265 262 267 267 270 267 264 268 268 263 257 259 259 258 256 258 259 263 264 230 227 194 191 194 210 232 230 225 224 229 236 232 252 218 248 246 260 271 272 285 257 296 293 301 306 311 316 320 319 317
259 253 260 266 262 261 266 268 269 268 266 265 264 261 266 259 257 261 274 268 248 228 232 190 162 234 189 200 196 175 203 222 237 239 222 198 213 224 228 265 261 291 326 303 304 312 318 312 313 313 316 317 313 307
262 251 253 261 260 259 261 262 265 270 264 262 257 246 220 236 271 256 238 220 212 221 219 176 165 171 170 159 156 227 213 207 200 245 196 188 237 248 340 111 92 358 330 328 333 330 325 319 317 315 314 310 302 298
257 253 253 259 257 257 259 259 256 260 260 252 231 200 238 259 255 237 241 196 176 249 220 217 193 183 215 136 206 205 188 192 195 255 155 261 271 184 72 50 13 348 333 324 314 309 308 301 300 304 307 305 302 300
262 257 255 255 256 255 256 255 253 249 244 238 210 200 208 212 210 193 205 121 175 218 220 155 194 173 166 186 128 211 183 120 236 135 106 248 226 57 17 351 335 330 327 324 323 320 318 309 309 305 301 301 304 304
269 261 259 257 256 253 254 249 248 241 239 212 196 189 183 214 234 187 170 225 330 263 184 167 223 155 157 184 158 155 211 223 72 78 215 219 67 357 347 338 329 329 329 326 325 324 323 321 317 309 308 310 310 308
260 258 256 253 253 253 250 246 242 234 223 168 167 191 180 224 226 190 165 178 103 71 80 74 87 160 179 155 203 235 223 120 194 201 228 66 343 338 336 334 331 329 330 327 326 327 326 322 320 322 318 314 314 313
259 260 261 259 253 248 244 239 236 223 169 174 181 198 173 129 82 107 109 114 64 91 110 141 300 233 265 220 202 193 235 232 206 224 114 317 327 329 327 329 328 327 327 325 328 327 326 326 327 321 321 325 323 326
269 266 265 257 237 232 237 228 210 162 159 165 136 137 86 83 19 63 65 89 63 132 153 118 199 217 238 194 168 219 159 221 219 240 308 321 319 322 325 326 325 324 324 324 326 326 326 329 327 322 328 336 337 337
259 258 269 241 235 233 224 177 141 91 99 94 75 84 88 78 107 113 115 112 46 147 167 185 186 214 332 240 219 32 236 184 285 315 321 319 320 324 327 325 326 326 326 327 326 327 328 333 329 332 336 345 348 348
248 253 251 238 185 165 106 80 99 111 73 51 83 60 82 90 102 106 124 77 117 122 114 205 344 220 217 214 243 226 309 302 317 320 321 328 331 330 329 327 329 331 329 327 329 333 337 334 338 339 346 353 4 13
283 304 194 200 173 99 101 66 60 89 73 89 107 105 105 110 94 90 90 99 136 148 163 110 205 224 202 154 181 270 313 316 312 320 325 340 343 341 340 339 339 334 334 341 347 344 344 348 349 353 359 10 27 30
178 169 67 127 123 89 86 60 70 87 98 100 104 100 96 85 96 74 80 113 119 92 50 55 169 175 222 280 302 299 307 319 323 323 332 351 358 354 357 351 342 348 358 9 11 9 10 14 17 19 27 36 49 51
130 111 118 152 75 74 88 78 73 89 118 94 111 71 87 88 69 54 50 52 70 48 123 141 159 292 299 301 296 307 320 323 319 308 316 330 357 4 9 7 14 21 25 27 21 21 27 31 33 41 50 57 62 70
130 122 106 61 64 64 72 50 81 86 76 113 99 74 76 45 47 55 48 56 80 110 113 19 330 340 25 21 13 348 341 342 338 338 342 357 13 25 25 23 32 36 38 37 34 33 37 41 49 58 67 72 77 82
126 118 70 55 83 52 34 67 75 46 91 179 97 53 13 37 72 77 56 66 124 115 29 34 62 77 75 69 50 41 46 51 53 51 53 52 48 48 49 40 40 43 45 48 49 49 50 54 60 65 70 74 78 80
104 55 35 41 39 60 45 35 57 66 79 53 69 60 343 211 115 53 204 251 187 191 175 138 134 131 109 94 79 71 62 55 59 58 58 58 55 46 43 45 44 44 44 46 49 51 52 54 56 59 63 65 66 68
93 11 21 14 26 52 45 21 1 51 78 7 101 97 285 22 99 195 220 223 194 195 181 164 150 142 131 111 80 48 40 32 35 41 41 40 40 46 44 32 29 29 29 36 39 41 44 46 47 48 51 53 54 55
67 8 46 358 1 80 26 80 45 120 60 76 93 296 339 90 120 240 230 183 185 185 180 174 167 145 118 101 78 46 20 359 333 317 335 349 4 14 14 14 18 21 17 18 20 22 24 27 30 34 39 41 42 45
75 351 42 43 72 99 65 49 82 90 99 163 248 21 78 180 244 248 172 184 181 174 166 161 157 146 128 80 15 352 349 358 349 332 320 318 344 1 8 8 10 9 10 12 10 9 10 10 11 10 7 4 5 9
90 47 99 354 59 43 123 79 96 170 214 169 94 172 175 201 241 196 189 182 177 178 173 172 178 172 137 355 351 337 329 319 340 341 341 342 351 358 2 4 6 6 3 1 1 360 1 1 2 359 358 355 351 346
53 52 60 29 41 44 154 157 204 186 174 184 157 244 252 248 250 245 200 186 190 195 197 200 203 213 241 335 336 340 341 332 338 350 350 352 0 0 3 2 1 358 358 359 355 351 348 346 345 342 341 339 338 333
22 14 76 64 96 258 160 182 197 205 227 232 266 280 272 272 273 237 211 202 205 209 214 224 232 240 256 288 296 307 324 329 331 336 338 340 336 335 333 331 329 329 330 332 333 335 334 331 328 324 321 318 316 313
346 342 76 107 196 151 206 290 289 274 255 255 249 255 278 300 292 241 220 209 211 218 228 237 245 253 261 274 289 294 299 307 321 323 319 319 318 318 317 317 317 317 316 318 318 318 316 316 316 315 314 311 308 307
355 29 124 42 289 265 313 335 274 248 236 249 243 255 282 286 279 251 225 224 230 237 244 246 250 261 273 273 280 290 295 297 302 305 306 310 313 315 314 315 316 315 313 310 308 307 307 308 310 311 312 314 314 313
331 346 352 338 348 25 345 341 19 336 248 258 242 264 262 266 249 234 228 226 220 210 219 237 251 256 266 281 289 293 294 298 299 299 301 304 310 314 314 314 314 313 311 308 306 304 303 302 301 303 304 307 310 312
Wind_Speed_850mb
48 49 47 46 50 50 58 57 53 53 52 46 44 46 41 40 42 40 53 46 48 37 54 40 40 44 22 15 6 13 13 10 5 4 5 5 6 6 8 16 20 11 9 12 11 16 18 41 21 19 22 34 38 60
50 50 49 53 52 48 50 58 52 51 52 50 47 43 41 47 46 47 56 50 48 53 47 28 36 56 66 68 51 26 18 14 13 3 3 3 8 9 26 19 13 12 6 8 9 12 33 31 51 29 18 26 30 38
53 54 51 53 51 54 50 55 58 56 55 53 48 47 48 49 50 48 55 51 47 50 59 71 62 73 72 75 66 37 31 32 27 43 7 6 8 5 4 8 11 11 21 8 22 13 38 55 48 43 54 57 67 60
59 57 55 53 52 54 50 54 55 59 62 57 53 51 51 51 47 42 49 51 54 28 12 40 51 57 57 42 53 76 80 63 41 33 13 6 5 13 7 10 8 17 20 12 26 27 38 41 41 45 55 47 56 71
64 61 58 52 50 53 55 52 53 55 53 55 56 53 53 52 45 43 50 59 57 54 8 11 35 41 33 34 51 52 54 67 48 11 7 7 9 12 12 14 15 23 27 22 28 44 22 47 60 43 40 45 47 59
62 61 60 60 50 50 54 61 54 53 52 50 49 51 51 49 44 42 49 58 62 78 32 9 34 51 56 76 89 81 68 66 44 19 9 20 48 19 8 9 21 44 65 54 22 40 44 52 48 45 61 74 75 78
62 60 58 59 59 51 54 60 57 53 51 49 52 53 51 49 46 50 23 22 28 41 30 8 6 15 37 57 55 59 60 45 41 27 21 28 27 25 11 20 31 67 53 37 31 34 30 32 37 75 66 68 88 97
62 56 56 58 58 55 54 54 56 53 51 50 49 46 46 47 49 59 67 67 60 42 18 5 7 3 19 16 14 42 34 32 25 24 16 14 17 12 12 23 53 33 37 26 17 23 31 51 58 76 77 65 85 106
62 57 56 57 59 53 52 53 53 48 47 45 42 38 40 45 47 69 62 55 57 60 9 12 10 8 14 12 10 10 12 7 12 7 7 11 4 10 18 26 9 6 6 22 36 40 38 48 70 78 71 79 67 89
65 61 57 57 55 50 51 50 47 45 42 39 39 27 12 21 33 36 15 17 25 20 20 6 12 4 13 10 4 2 12 6 5 8 4 7 16 47 10 6 8 7 15 27 42 44 66 81 74 92 84 80 69 77
52 52 50 54 53 50 50 49 45 45 38 40 21 20 19 22 18 14 11 11 9 3 10 13 26 8 24 6 10 17 5 4 5 10 11 4 6 2 14 14 12 18 24 33 38 49 52 56 72 83 94 84 78 77
53 52 52 51 52 50 49 49 48 45 47 36 16 16 10 14 18 10 6 1 4 9 8 7 11 12 12 13 6 4 7 2 10 3 7 4 5 13 18 22 29 37 45 51 54 62 64 60 68 76 80 82 83 81
48 45 45 48 50 50 50 48 50 49 45 44 17 14 12 12 10 11 13 4 1 5 7 8 2 9 8 10 2 5 10 10 3 4 9 5 9 21 35 42 49 52 58 63 69 69 71 74 67 67 78 80 79 82
44 43 44 45 46 45 47 46 48 46 41 17 13 13 11 6 6 5 7 6 2 3 6 5 3 6 9 4 5 7 8 5 5 4 14 3 19 39 47 51 59 67 67 71 73 74 75 72 76 71 69 71 73 74
35 35 39 45 48 48 48 45 43 49 20 10 9 10 8 9 13 9 15 15 7 4 3 1 4 2 3 4 6 2 5 9 11 10 1 15 39 45 51 56 59 66 70 73 72 71 73 71 69 70 67 60 52 53
34 38 44 39 40 42 39 36 43 20 24 16 6 7 5 8 3 7 10 8 6 2 4 2 2 3 9 7 6 13 8 12 5 4 22 36 43 50 53 54 58 61 62 65 64 64 62 60 62 64 57 48 42 42
28 38 29 22 29 31 41 42 16 10 8 7 3 19 17 16 11 8 6 4 2 3 4 1 8 18 5 6 7 5 6 2 8 30 33 42 46 48 48 54 57 56 58 59 58 53 51 50 51 48 50 43 37 35
27 24 21 22 31 51 29 16 10 9 11 13 5 8 13 13 14 8 5 4 3 4 3 5 4 4 8 9 5 4 4 20 26 32 42 42 38 40 43 49 49 50 53 49 42 42 43 42 42 42 38 33 30 27
7 12 11 30 31 20 10 8 9 9 10 12 21 17 13 18 15 8 5 5 7 6 2 3 3 4 3 1 4 7 23 23 34 42 41 34 35 39 40 40 46 46 40 35 35 34 32 27 31 32 28 25 26 25
15 20 5 26 23 9 11 10 10 15 5 8 11 10 13 13 14 16 12 9 7 4 7 4 3 5 1 7 17 24 22 21 26 38 41 37 37 38 36 41 39 33 30 30 32 28 29 29 27 27 24 23 26 28
21 28 22 19 14 18 14 9 12 10 15 14 15 5 10 9 8 8 8 8 7 5 2 4 4 5 13 13 9 13 16 18 21 22 31 39 34 31 37 35 29 29 33 38 39 34 32 32 28 27 28 29 27 27
16 16 12 13 13 12 16 18 14 11 11 13 8 7 9 4 4 5 5 10 5 3 3 1 6 8 5 4 6 11 15 12 9 11 11 14 23 31 38 39 38 39 40 40 38 38 37 33 30 30 33 33 33 35
18 11 10 11 10 14 7 10 10 8 7 1 7 7 5 3 5 4 5 2 3 2 2 3 3 6 9 10 11 11 12 11 15 16 15 15 16 21 30 38 42 43 43 44 44 43 42 38 37 37 36 36 38 39
15 12 16 14 19 4 6 12 8 7 7 6 6 3 3 2 2 4 2 4 5 4 4 5 7 10 12 11 14 17 17 17 19 20 19 17 19 21 24 29 34 36 38 38 41 42 43 43 41 40 39 38 38 38
8 20 14 11 14 10 10 8 10 7 5 4 5 1 3 2 2 1 5 6 16 13 12 12 11 10 10 8 6 8 9 10 11 15 19 21 18 15 18 23 27 31 30 31 37 38 39 38 38 37 37 38 37 35
15 16 10 4 8 7 2 5 3 3 3 3 0 5 2 4 2 8 6 17 19 20 19 16 15 13 10 8 6 6 7 9 9 9 11 16 19 24 24 25 26 27 28 29 29 29 28 28 28 28 28 28 27 25
9 6 11 11 6 7 8 8 5 5 4 5 3 3 4 2 7 6 9 18 18 20 18 16 13 10 6 3 4 7 10 13 13 11 12 11 12 14 21 25 26 27 26 26 26 26 26 24 23 21 21 21 19 18
8 7 6 7 8 7 7 3 3 4 4 4 5 2 9 9 6 4 9 20 19 21 20 16 10 6 1 4 7 9 10 9 11 9 8 7 8 12 17 20 23 25 27 27 26 25 24 24 23 21 20 19 19 19
9 5 3 6 5 5 3 6 7 5 5 7 6 5 6 7 6 5 12 21 24 23 20 16 12 8 3 6 8 9 9 6 7 8 8 9 10 12 14 17 20 22 23 25 26 28 28 27 25 24 23 22 21 19
8 8 5 3 5 1 1 3 1 5 8 10 7 9 10 10 7 12 18 25 28 23 17 18 17 15 10 9 7 8 10 9 10 11 14 14 16 16 19 21 23 26 29 29 30 29 28 29 29 30 28 27 27 25
5 3 2 2 4 3 1 7 12 13 10 8 15 13 12 13 9 11 18 21 23 27 28 25 21 19 18 15 16 16 13 14 17 20 24 25 25 26 27 29 31 35 39 41 40 39 39 36 34 33 31 30 28 30
5 4 4 2 3 2 5 6 3 3 4 5 5 6 7 7 8 3 3 16 28 31 24 23 24 17 15 21 24 23 23 25 26 27 30 31 31 31 33 35 38 41 44 45 44 42 42 42 39 36 35 33 32 32
3 3 3 4 3 1 6 11 3 5 5 4 4 4 5 6 9 3 2 1 3 6 8 13 15 17 19 21 22 22 24 26 26 27 27 29 32 37 43 47 50 51 52 50 47 45 44 43 43 40 38 38 39 39
Wind_Direction_850mb
273 273 275 276 271 279 265 269 264 261 262 262 265 268 269 266 258 248 259 256 251 260 268 251 245 236 219 200 175 266 338 282 312 212 184 278 285 3 332 339 306 282 315 289 321 282 274 27 49 16 298 294 320 322
270 273 274 276 278 274 270 265 267 265 261 263 262 261 266 267 262 255 256 258 260 251 258 260 259 252 248 252 251 235 224 184 239 85 355 8 319 310 297 280 301 255 4 288 309 324 305 314 319 326 322 317 311 316
271 271 273 275 276 274 271 268 269 268 269 265 262 266 266 266 260 254 257 260 261 256 267 262 258 266 252 247 244 233 234 245 239 239 193 215 219 160 253 273 286 273 314 294 306 274 298 306 316 324 334 333 326 326
263 264 269 272 275 272 268 266 267 266 264 264 264 264 268 264 259 256 258 262 257 248 230 268 267 257 260 251 239 236 247 255 248 259 218 188 191 222 231 237 223 267 299 266 280 279 297 296 310 326 321 315 320 317
264 263 262 265 272 273 276 266 266 264 264 262 261 261 262 259 257 262 264 264 264 248 272 261 273 269 265 246 239 242 243 237 234 215 192 220 225 230 241 263 253 253 262 270 279 295 306 301 313 326 321 324 319 317
266 266 265 265 263 270 271 273 268 270 265 262 262 265 264 256 256 262 274 272 266 254 247 254 262 263 263 252 249 247 246 233 219 208 224 231 239 221 237 219 241 255 258 262 283 290 293 299 302 310 324 326 323 315
260 264 267 266 268 267 271 270 272 268 269 266 270 265 260 255 252 244 241 265 298 243 219 231 260 268 251 240 239 243 242 231 227 231 237 242 241 235 250 259 267 262 274 275 286 299 298 298 308 313 321 317 318 319
260 258 265 268 265 262 267 267 270 267 264 268 268 263 257 259 259 258 256 258 259 263 264 230 227 194 191 194 210 232 230 225 224 229 236 232 252 218 248 246 260 271 272 285 257 296 293 301 306 311 316 320 319 317
259 253 260 266 262 261 266 268 269 268 266 265 264 261 266 259 257 261 274 268 248 228 232 190 162 234 189 200 196 175 203 222 237 239 222 198 213 224 228 265 261 291 326 303 304 312 318 312 313 313 316 317 313 307
262 251 253 261 260 259 261 262 265 270 264 262 257 246 220 236 271 256 238 220 212 221 219 176 165 171 170 159 156 227 213 207 200 245 196 188 237 248 340 111 92 358 330 328 333 330 325 319 317 315 314 310 302 298
257 253 253 259 257 257 259 259 256 260 260 252 231 200 238 259 255 237 241 196 176 249 220 217 193 183 215 136 206 205 188 192 195 255 155 261 271 184 72 50 13 348 333 324 314 309 308 301 300 304 307 305 302 300
262 257 255 255 256 255 256 255 253 249 244 238 210 200 208 212 210 193 205 121 175 218 220 155 194 173 166 186 128 211 183 120 236 135 106 248 226 57 17 351 335 330 327 324 323 320 318 309 309 305 301 301 304 304
269 261 259 257 256 253 254 249 248 241 239 212 196 189 183 214 234 187 170 225 330 263 184 167 223 155 157 184 158 155 211 223 72 78 215 219 67 357 347 338 329 329 329 326 325 324 323 321 317 309 308 310 310 308
260 258 256 253 253 253 250 246 242 234 223 168 167 191 180 224 226 190 165 178 103 71 80 74 87 160 179 155 203 235 223 120 194 201 228 66 343 338 336 334 331 329 330 327 326 327 326 322 320 322 318 314 314 313
259 260 261 259 253 248 244 239 236 223 169 174 181 198 173 129 82 107 109 114 64 91 110 141 300 233 265 220 202 193 235 232 206 224 114 317 327 329 327 329 328 327 327 325 328 327 326 326 327 321 321 325 323 326
269 266 265 257 237 232 237 228 210 162 159 165 136 137 86 83 19 63 65 89 63 132 153 118 199 217 238 194 168 219 159 221 219 240 308 321 319 322 325 326 325 324 324 324 326 326 326 329 327 322 328 336 337 337
259 258 269 241 235 233 224 177 141 91 99 94 75 84 88 78 107 113 115 112 46 147 167 185 186 214 332 240 219 32 236 184 285 315 321 319 320 324 327 325 326 326 326 327 326 327 328 333 329 332 336 345 348 348
248 253 251 238 185 165 106 80 99 111 73 51 83 60 82 90 102 106 124 77 117 122 114 205 344 220 217 214 243 226 309 302 317 320 321 328 331 330 329 327 329 331 329 327 329 333 337 334 338 339 346 353 4 13
283 304 194 200 173 99 101 66 60 89 73 89 107 105 105 110 94 90 90 99 136 148 163 110 205 224 202 154 181 270 313 316 312 320 325 340 343 341 340 339 339 334 334 341 347 344 344 348 349 353 359 10 27 30
178 169 67 127 123 89 86 60 70 87 98 100 104 100 96 85 96 74 80 113 119 92 50 55 169 175 222 280 302 299 307 319 323 323 332 351 358 354 357 351 342 348 358 9 11 9 10 14 17 19 27 36 49 51
130 111 118 152 75 74 88 78 73 89 118 94 111 71 87 88 69 54 50 52 70 48 123 141 159 292 299 301 296 307 320 323 319 308 316 330 357 4 9 7 14 21 25 27 21 21 27 31 33 41 50 57 62 70
130 122 106 61 64 64 72 50 81 86 76 113 99 74 76 45 47 55 48 56 80 110 113 19 330 340 25 21 13 348 341 342 338 338 342 357 13 25 25 23 32 36 38 37 34 33 37 41 49 58 67 72 77 82
126 118 70 55 83 52 34 67 75 46 91 179 97 53 13 37 72 77 56 66 124 115 29 34 62 77 75 69 50 41 46 51 53 51 53 52 48 48 49 40 40 43 45 48 49 49 50 54 60 65 70 74 78 80
104 55 35 41 39 60 45 35 57 66 79 53 69 60 343 211 115 53 204 251 187 191 175 138 134 131 109 94 79 71 62 55 59 58 58 58 55 46 43 45 44 44 44 46 49 51 52 54 56 59 63 65 66 68
93 11 21 14 26 52 45 21 1 51 78 7 101 97 285 22 99 195 220 223 194 195 181 164 150 142 131 111 80 48 40 32 35 41 41 40 40 46 44 32 29 29 29 36 39 41 44 46 47 48 51 53 54 55
67 8 46 358 1 80 26 80 45 120 60 76 93 296 339 90 120 240 230 183 185 185 180 174 167 145 118 101 78 46 20 359 333 317 335 349 4 14 14 14 18 21 17 18 20 22 24 27 30 34 39 41 42 45
75 351 42 43 72 99 65 49 82 90 99 163 248 21 78 180 244 248 172 184 181 174 166 161 157 146 128 80 15 352 349 358 349 332 320 318 344 1 8 8 10 9 10 12 10 9 10 10 11 10 7 4 5 9
90 47 99 354 59 43 123 79 96 170 214 169 94 172 175 201 241 196 189 182 177 178 173 172 178 172 137 355 351 337 329 319 340 341 341 342 351 358 2 4 6 6 3 1 1 360 1 1 2 359 358 355 351 346
53 52 60 29 41 44 154 157 204 186 174 184 157 244 252 248 250 245 200 186 190 195 197 200 203 213 241 335 336 340 341 332 338 350 350 352 0 0 3 2 1 358 358 359 355 351 348 346 345 342 341 339 338 333
22 14 76 64 96 258 160 182 197 205 227 232 266 280 272 272 273 237 211 202 205 209 214 224 232 240 256 288 296 307 324 329 331 336 338 340 336 335 333 331 329 329 330 332 333 335 334 331 328 324 321 318 316 313
346 342 76 107 196 151 206 290 289 274 255 255 249 255 278 300 292 241 220 209 211 218 228 237 245 253 261 274 289 294 299 307 321 323 319 319 318 318 317 317 317 317 316 318 318 318 316 316 316 315 314 311 308 307
355 29 124 42 289 265 313 335 274 248 236 249 243 255 282 286 279 251 225 224 230 237 244 246 250 261 273 273 280 290 295 297 302 305 306 310 313 315 314 315 316 315 313 310 308 307 307 308 310 311 312 314 314 313
331 346 352 338 348 25 345 341 19 336 248 258 242 264 262 266 249 234 228 226 220 210 219 237 251 256 266 281 289 293 294 298 299 299 301 304 310 314 314 314 314 313 311 308 306 304 303 302 301 303 304 307 310 312